Flagstaff, AZ

1:46 AM MST on August 20, 2017 (GMT -0700)
Flagstaff Pulliam

Weather History for KFLG - February, 2013

Change the Weather History Date:

Sunday, February 3, 2013

  Actual Average Record
Temperature  
Mean Temperature 36 °F 31 °F  
Max Temperature 44 °F 43 °F 64 °F (1953)
Min Temperature 27 °F 18 °F -22 °F (1922)
Degree Days  
Heating Degree Days 29 34  
Month to date heating degree days 87 102  
Since 1 July heating degree days 3924 4018  
Cooling Degree Days 0 0  
Month to date cooling degree days 0 0  
Year to date cooling degree days 0 0  
Moisture  
Dew Point 27 °F    
Average Humidity 69    
Maximum Humidity 92    
Minimum Humidity 45    
Precipitation  
Precipitation T in 0.07 in 1.35 in (1901)
Month to date precipitation T 0.21  
Year to date precipitation 2.64 2.26  
Snow  
Snow T in 0.80 in 13.50 in (1901)
Month to date snowfall T 2.4  
Since 1 July snowfall 33.0 54.7  
Snow Depth 0.00 in    
Sea Level Pressure  
Sea Level Pressure 30.11 in    
Wind  
Wind Speed 3 mph (ESE)    
Max Wind Speed 10 mph    
Max Gust Speed 15 mph    
Visibility 10 miles    
Events      
T = Trace of Precipitation, MM = Missing Value Source: NWS Daily Summary

Daily Weather History Graph

Daily Weather History Graph

Search for Another Location

Airport or City:

Trip Planner

Search our weather history database for the weather conditions in past years. The results will help you decide how hot, cold, wet, or windy it might be!

Date:

Astronomy

Feb. 03, 2013 Rise Set
Actual Time 7:23 AM MST 5:57 PM MST
Civil Twilight 6:57 AM MST 6:24 PM MST
Nautical Twilight 6:27 AM MST 6:54 PM MST
Astronomical Twilight 5:57 AM MST 7:24 PM MST
Moon 12:54 AM MST (2/3) 11:39 AM MST (2/3)
Length of Visible Light 11h 26m
Length of Day
10h 33m
Waning Gibbous, 48% of the Moon is Illuminated
Feb 3
Waning Gibbous
Feb 10
New
Feb 17
First Quarter
Feb 25
Full
Mar 4
Last Quarter

Hourly Weather History & Observations

Time (MST) Temp. Windchill Dew Point Humidity Pressure Visibility Wind Dir Wind Speed Gust Speed Precip Events Conditions
12:57 AM 28.0 °F - 23.0 °F 81% 30.24 in 10.0 mi Calm Calm - N/A   Mostly Cloudy
1:57 AM 28.9 °F - 24.1 °F 82% 30.20 in 10.0 mi Calm Calm - N/A   Clear
2:57 AM 30.0 °F - 24.1 °F 79% 30.17 in 10.0 mi Calm Calm - N/A   Mostly Cloudy
3:57 AM 30.0 °F - 24.1 °F 79% 30.15 in 10.0 mi Calm Calm - N/A   Overcast
4:57 AM 30.0 °F - 24.1 °F 79% 30.14 in 10.0 mi Calm Calm - N/A   Overcast
5:57 AM 30.9 °F - 25.0 °F 79% 30.14 in 10.0 mi Calm Calm - N/A   Overcast
6:57 AM 32.0 °F - 25.0 °F 75% 30.15 in 10.0 mi Calm Calm - N/A   Overcast
7:57 AM 32.0 °F - 26.1 °F 79% 30.18 in 10.0 mi Calm Calm - N/A   Overcast
8:57 AM 36.0 °F 32.1 °F 26.1 °F 67% 30.19 in 10.0 mi SSW 4.6 mph - N/A   Overcast
9:57 AM 42.1 °F 37.1 °F 23.0 °F 47% 30.17 in 10.0 mi West 8.1 mph - N/A   Overcast
10:57 AM 43.0 °F 40.3 °F 28.0 °F 56% 30.15 in 10.0 mi Variable 4.6 mph - N/A   Overcast
11:57 AM 42.1 °F 38.4 °F 27.0 °F 55% 30.13 in 10.0 mi WSW 5.8 mph - N/A   Overcast
12:57 PM 42.1 °F - 28.0 °F 58% 30.09 in 10.0 mi Calm Calm - N/A   Overcast
1:57 PM 43.0 °F 40.3 °F 28.0 °F 56% 30.05 in 10.0 mi SW 4.6 mph - N/A   Overcast
2:57 PM 43.0 °F 38.2 °F 28.9 °F 58% 30.02 in 10.0 mi SW 8.1 mph - N/A   Overcast
3:57 PM 41.0 °F 35.8 °F 28.9 °F 62% 30.02 in 10.0 mi East 8.1 mph - N/A   Overcast
4:57 PM 37.9 °F 31.5 °F 28.9 °F 70% 30.06 in 10.0 mi NE 9.2 mph - N/A   Overcast
5:57 PM 37.0 °F 33.3 °F 28.9 °F 73% 30.07 in 10.0 mi East 4.6 mph - N/A   Overcast
6:18 PM 35.6 °F 31.7 °F 28.4 °F 75% 30.13 in 10.0 mi NE 4.6 mph - N/A   Overcast
6:57 PM 36.0 °F 33.3 °F 28.9 °F 76% 30.09 in 10.0 mi ENE 3.5 mph - N/A   Overcast
7:57 PM 35.1 °F 31.0 °F 30.9 °F 85% 30.08 in 10.0 mi East 4.6 mph - N/A   Overcast
8:39 PM 35.6 °F - 30.2 °F 81% 30.13 in 10.0 mi Calm Calm - N/A   Overcast
8:57 PM 35.1 °F - 30.0 °F 82% 30.06 in 10.0 mi Calm Calm - N/A   Overcast
9:57 PM 30.0 °F - 28.0 °F 92% 30.06 in 10.0 mi Calm Calm - N/A   Clear
10:57 PM 28.9 °F - 26.1 °F 89% 30.05 in 10.0 mi Calm Calm - N/A   Clear
11:57 PM 28.0 °F 24.2 °F 26.1 °F 92% 30.06 in 10.0 mi East 3.5 mph - N/A   Clear